GFSNIL_prec_cthk_108.txt.gz
RH
45 56 66 71 76 88 98 97 93 96 95 93 84 73 69 66 72 78 82 83 83 82
43 48 55 62 71 84 90 97 96 95 94 95 93 88 93 90 90 91 93 94 92 90
42 43 46 48 57 66 78 93 95 95 96 96 95 93 93 92 92 92 94 90 91 91
48 45 45 46 52 58 67 78 86 96 99 98 98 95 95 94 95 95 97 92 96 94
48 47 49 49 50 56 64 71 77 86 98 97 98 98 98 97 96 97 96 96 98 95
46 48 49 51 53 56 56 62 72 79 90 91 94 96 96 94 95 98 95 96 95 93
44 45 47 51 54 55 56 58 58 66 76 80 84 89 88 90 89 85 82 80 79 82
41 45 45 45 52 56 61 60 58 57 57 63 68 75 80 80 80 77 74 72 74 75
50 45 45 44 45 52 55 60 64 67 69 68 69 72 74 75 75 74 72 74 75 75
67 61 54 51 48 47 50 55 58 61 66 71 74 75 75 76 76 76 75 74 73 71
79 77 73 67 61 53 51 52 54 56 58 61 64 69 71 71 70 69 68 69 68 69
80 80 78 78 75 74 62 57 56 61 62 62 63 66 69 71 70 71 73 73 75 75
87 82 77 76 78 79 80 75 71 69 66 68 69 72 73 73 72 75 78 82 82 80
72 72 73 73 79 84 81 84 86 83 80 74 73 76 80 81 79 81 83 88 88 89

GFSNIL_prec_cthk_111.txt.gz
RH
37 43 51 60 70 69 83 95 99 97 99 97 97 91 74 52 42 42 44 52 61 67
39 44 47 50 54 63 81 90 98 99 99 95 82 83 75 61 58 57 60 68 75 81
40 44 46 47 50 60 70 84 95 99 98 93 90 86 78 73 71 72 75 78 86 85
42 44 46 46 50 59 64 72 87 91 94 94 93 95 88 82 79 81 84 82 87 88
43 46 46 46 49 58 62 74 80 79 95 94 96 93 93 91 91 90 89 89 90 95
42 45 46 47 48 54 61 66 71 78 90 93 98 94 96 97 94 93 93 92 88 89
41 44 46 49 50 51 55 60 64 72 79 89 96 97 96 95 95 95 94 93 92 89
39 43 44 49 51 53 56 57 57 62 68 75 81 86 87 96 89 87 87 89 88 87
48 45 45 46 48 51 54 56 61 62 59 58 65 71 76 88 82 86 84 84 83 78
60 58 54 50 48 49 51 54 55 59 63 66 66 67 70 77 85 82 92 84 80 79
76 72 69 65 61 56 52 50 54 55 58 62 66 69 72 74 75 76 76 77 78 78
82 86 83 78 74 74 70 66 56 55 58 58 60 64 66 69 70 71 74 75 75 75
83 83 86 81 84 85 83 82 83 76 64 58 62 64 64 67 68 71 73 76 77 78
79 85 84 79 78 82 80 80 83 85 85 81 77 73 71 74 75 77 80 83 84 83

GFSNIL_prec_cthk_114.txt.gz
RH
54 39 35 43 45 52 62 68 82 91 99 99 98 99 99 98 98 97 84 72 65 54
49 39 38 42 41 43 50 70 85 94 98 98 99 99 98 98 99 99 87 81 60 58
50 40 39 41 41 41 50 66 84 92 98 99 98 98 99 99 99 97 89 65 56 62
49 40 39 40 41 42 52 63 81 90 94 98 96 98 98 96 88 78 59 52 60 70
51 42 41 40 42 44 53 60 68 89 91 97 94 94 94 82 72 72 65 69 68 75
55 44 43 42 43 44 52 57 66 73 90 98 96 92 89 79 80 83 83 84 87 86
57 46 45 44 42 44 50 56 62 68 83 94 96 95 94 93 93 90 89 86 86 87
58 47 45 45 45 46 48 52 58 63 70 79 90 98 96 92 91 94 93 92 92 89
61 48 45 45 46 47 49 51 53 56 61 69 78 84 89 91 91 98 97 89 87 87
66 54 48 46 48 48 49 51 52 53 56 58 60 65 67 70 76 80 82 82 82 79
74 69 62 53 50 50 52 52 53 54 56 57 59 60 64 67 72 76 77 79 81 85
84 84 77 77 74 66 59 57 60 61 60 59 60 61 63 65 67 71 75 76 77 80
93 88 84 84 86 85 83 77 75 74 75 77 73 68 69 69 69 71 72 73 73 77
90 88 86 87 87 87 90 88 88 87 84 83 83 82 80 78 78 77 79 80 79 76

GFSNIL_prec_cthk_117.txt.gz
RH
55 60 60 54 46 37 41 45 50 62 65 75 89 95 98 98 99 98 98 95 92 91
59 62 61 50 46 42 40 40 43 54 66 84 93 97 98 98 97 99 99 96 92 93
65 68 57 50 48 38 37 39 47 56 72 85 94 96 99 99 99 98 98 97 94 95
68 68 55 54 46 37 37 41 50 57 71 86 92 98 99 98 99 99 98 97 94 95
71 60 55 57 44 38 38 43 51 57 71 86 96 99 98 99 99 99 98 98 97 94
68 60 60 58 42 37 40 45 51 59 66 87 96 97 98 99 99 98 99 98 96 99
65 62 67 61 46 38 40 45 50 59 63 79 95 96 97 95 95 93 91 88 77 68
64 66 73 65 51 42 43 45 50 56 65 71 80 90 96 92 87 84 78 81 83 86
72 74 78 66 55 47 47 47 48 52 60 68 74 89 90 96 92 89 93 97 92 89
79 78 72 68 58 51 50 50 50 51 53 57 66 81 88 91 93 92 92 97 96 91
88 84 75 70 60 53 53 53 54 53 53 55 58 62 66 70 74 76 77 83 89 87
94 88 76 75 64 60 56 57 58 57 56 58 60 60 60 64 69 72 74 77 82 85
99 93 83 77 77 75 71 68 62 64 64 67 69 70 68 67 66 68 70 72 73 77
97 96 94 89 84 83 84 84 85 85 79 78 79 82 84 86 84 79 78 78 78 78

GFSNIL_prec_cthk_120.txt.gz
RH
52 59 62 56 56 56 57 51 49 42 39 44 53 62 67 72 92 94 98 96 96 93
59 63 64 59 60 63 59 54 49 43 41 43 46 54 66 85 92 96 99 97 98 97
60 63 61 62 64 65 57 55 47 38 39 42 50 65 77 88 97 98 98 98 99 97
62 64 65 66 70 66 59 56 45 38 40 46 56 71 87 91 95 97 98 98 98 98
63 66 67 71 73 63 59 54 43 39 43 49 58 74 88 97 99 99 99 99 99 97
63 66 70 75 68 64 61 55 43 42 45 52 60 71 87 96 98 98 98 98 99 98
67 69 74 74 67 65 65 57 43 44 46 54 63 76 81 95 98 98 98 98 98 98
70 74 79 71 71 68 72 58 45 45 49 56 68 81 80 91 97 98 98 98 98 98
74 76 77 75 76 70 76 58 47 48 50 56 64 75 83 89 94 94 94 95 95 96
82 80 77 77 77 82 80 60 49 49 53 56 62 73 85 92 95 92 87 88 86 87
85 86 81 78 84 86 81 67 56 53 53 58 59 64 77 84 87 88 89 86 84 87
85 85 82 82 87 90 84 73 61 60 59 56 58 62 67 68 68 70 72 76 81 82
97 95 95 82 88 90 83 76 65 62 62 62 62 62 63 63 64 68 70 73 76 80
91 96 97 93 90 91 87 78 73 72 71 69 69 71 74 74 77 80 82 79 76 79

GFSNIL_prec_cthk_123.txt.gz
RH
48 50 49 49 50 50 54 56 57 62 58 56 51 47 50 54 58 65 74 79 84 93
53 53 54 55 56 56 59 59 60 65 59 58 51 46 51 52 55 60 72 77 95 93
55 54 56 59 61 64 61 61 63 63 61 56 50 45 48 52 58 72 78 83 98 99
55 55 58 63 66 69 62 64 67 60 61 53 47 45 51 56 64 78 86 94 95 98
51 59 67 66 66 68 66 67 66 61 59 51 44 48 54 63 72 83 89 97 98 97
63 66 68 71 68 70 69 71 59 60 58 50 46 50 55 64 72 84 95 99 99 99
66 68 68 70 75 73 74 68 61 63 62 52 48 53 61 72 85 89 98 98 98 98
68 71 70 72 74 74 71 68 65 65 65 55 51 57 64 75 81 92 98 97 98 98
74 76 77 78 76 75 74 70 67 67 72 57 54 59 63 71 83 94 98 98 97 96
76 80 78 80 77 80 79 75 69 72 73 59 55 58 64 76 86 90 97 98 98 98
77 81 81 83 80 84 83 77 77 76 77 62 57 60 66 77 87 89 95 97 97 98
74 80 84 83 84 85 86 83 85 85 81 68 61 61 65 71 84 88 90 93 93 91
60 75 83 87 87 81 84 86 93 94 83 74 65 64 64 68 71 73 76 78 77 83
53 64 78 92 96 91 88 88 89 92 86 80 70 68 66 67 71 71 72 72 73 73